• In Schweiz
  • Länderverzeichnis
  • Für 7 Tage
  • Wassertemperatur
  • Satellitenkarten
  • Wetterkarte
  • Widgets
  • user-avatar
    Anmelden

    Stündliche Wetter Talec

    Heute, 15 August, Mittwoch

    Zeit Temperatur Niederschläge Wind Luftdruck Luftfeuchtigkeit
    00:00 +15°C° 0,6 mm 2 m/S 750 mmHg 84%
    01:00 +14°C° 0,6 mm 2 m/S 750 mmHg 89%
    02:00 +14°C° 0 mm 2 m/S 749 mmHg 94%
    03:00 +14°C° 1 mm 2 m/S 749 mmHg 95%
    04:00 +15°C° 1 mm 2 m/S 748 mmHg 96%
    05:00 +15°C° 1 mm 2 m/S 748 mmHg 97%
    06:00 +15°C° 0,7 mm 2 m/S 748 mmHg 97%
    07:00 +16°C° 0,7 mm 2 m/S 748 mmHg 96%
    08:00 +17°C° 0,7 mm 2 m/S 747 mmHg 96%
    09:00 +18°C° 0,7 mm 1 m/S 747 mmHg 96%
    10:00 +19°C° 0,7 mm 1 m/S 748 mmHg 96%
    11:00 +19°C° 0,7 mm 1 m/S 748 mmHg 96%
    12:00 +19°C° 0,3 mm 1 m/S 748 mmHg 95%
    13:00 +18°C° 0,3 mm 2 m/S 748 mmHg 95%
    14:00 +18°C° 0,3 mm 2 m/S 748 mmHg 94%
    15:00 +18°C° 0,1 mm 2 m/S 749 mmHg 94%
    16:00 +19°C° 0,1 mm 2 m/S 749 mmHg 93%
    17:00 +19°C° 0,1 mm 2 m/S 749 mmHg 93%
    18:00 +18°C° 0 mm 2 m/S 749 mmHg 94%
    19:00 +18°C° 0 mm 1 m/S 750 mmHg 96%
    20:00 +18°C° 0 mm 1 m/S 750 mmHg 97%
    21:00 +16°C° 0 mm 1 m/S 750 mmHg 98%
    22:00 +15°C° 0 mm 1 m/S 751 mmHg 98%
    23:00 +15°C° 0 mm 1 m/S 751 mmHg 98%

    Morgen, 16 August, Donnerstag

    Zeit Temperatur Niederschläge Wind Luftdruck Luftfeuchtigkeit
    00:00 +15°C° 0 mm 1 m/S 752 mmHg 98%
    01:00 +14°C° 0 mm 1 m/S 752 mmHg 98%
    02:00 +14°C° 0 mm 2 m/S 752 mmHg 98%
    03:00 +14°C° 0 mm 1 m/S 753 mmHg 98%
    04:00 +14°C° 0 mm 1 m/S 753 mmHg 98%
    05:00 +14°C° 0 mm 1 m/S 754 mmHg 98%
    06:00 +14°C° 0 mm 1 m/S 754 mmHg 96%
    07:00 +15°C° 0 mm 1 m/S 754 mmHg 93%
    08:00 +16°C° 0 mm 1 m/S 755 mmHg 91%
    09:00 +19°C° 0 mm 1 m/S 755 mmHg 83%
    10:00 +20°C° 0 mm 1 m/S 755 mmHg 75%
    11:00 +22°C° 0 mm 1 m/S 756 mmHg 67%
    12:00 +22°C° 0 mm 1 m/S 756 mmHg 66%
    13:00 +22°C° 0 mm 1 m/S 756 mmHg 66%
    14:00 +22°C° 0 mm 1 m/S 756 mmHg 65%
    15:00 +22°C° 0 mm 1 m/S 756 mmHg 64%
    16:00 +23°C° 0 mm 1 m/S 756 mmHg 64%
    17:00 +23°C° 0 mm 1 m/S 756 mmHg 63%
    18:00 +21°C° 0 mm 1 m/S 756 mmHg 70%
    19:00 +17°C° 0 mm 0 m/S 757 mmHg 76%
    20:00 +15°C° 0 mm 0 m/S 757 mmHg 83%
    21:00 +15°C° 0 mm 0 m/S 757 mmHg 85%
    22:00 +14°C° 0 mm 0 m/S 757 mmHg 87%
    23:00 +13°C° 0 mm 0 m/S 758 mmHg 90%

    übermorgen, 17 August, Freitag

    Zeit Temperatur Niederschläge Wind Luftdruck Luftfeuchtigkeit
    00:00 +13°C° 0 mm 0 m/S 758 mmHg 90%
    01:00 +13°C° 0 mm 0 m/S 758 mmHg 91%
    02:00 +13°C° 0 mm 0 m/S 758 mmHg 92%
    03:00 +12°C° 0 mm 0 m/S 758 mmHg 92%
    04:00 +13°C° 0 mm 1 m/S 758 mmHg 93%
    05:00 +13°C° 0 mm 1 m/S 758 mmHg 93%
    06:00 +15°C° 0 mm 1 m/S 759 mmHg 86%
    07:00 +18°C° 0 mm 1 m/S 759 mmHg 79%
    08:00 +20°C° 0 mm 1 m/S 759 mmHg 72%
    09:00 +22°C° 0 mm 1 m/S 759 mmHg 66%
    10:00 +23°C° 0 mm 2 m/S 759 mmHg 60%
    11:00 +25°C° 0 mm 2 m/S 759 mmHg 54%
    12:00 +25°C° 0 mm 2 m/S 758 mmHg 54%
    13:00 +25°C° 0 mm 2 m/S 758 mmHg 53%
    14:00 +25°C° 0 mm 2 m/S 758 mmHg 53%
    15:00 +25°C° 0 mm 2 m/S 758 mmHg 55%
    16:00 +25°C° 0 mm 2 m/S 757 mmHg 58%
    17:00 +25°C° 0 mm 1 m/S 757 mmHg 60%
    18:00 +23°C° 0 mm 1 m/S 757 mmHg 67%
    19:00 +21°C° 0 mm 1 m/S 757 mmHg 75%
    20:00 +19°C° 0 mm 1 m/S 757 mmHg 82%
    21:00 +19°C° 0 mm 1 m/S 757 mmHg 84%
    22:00 +18°C° 0 mm 1 m/S 757 mmHg 87%
    23:00 +16°C° 0 mm 1 m/S 757 mmHg 89%

    18 August, Samstag

    Zeit Temperatur Niederschläge Wind Luftdruck Luftfeuchtigkeit
    00:00 +16°C° 0 mm 1 m/S 757 mmHg 91%
    01:00 +16°C° 0 mm 2 m/S 757 mmHg 93%
    02:00 +16°C° 0 mm 2 m/S 757 mmHg 94%
    03:00 +15°C° 0 mm 2 m/S 757 mmHg 95%
    04:00 +15°C° 0 mm 2 m/S 757 mmHg 96%
    05:00 +15°C° 0 mm 2 m/S 757 mmHg 97%
    06:00 +17°C° 0 mm 2 m/S 757 mmHg 91%
    07:00 +19°C° 0 mm 2 m/S 757 mmHg 85%
    08:00 +20°C° 0 mm 2 m/S 757 mmHg 79%
    09:00 +22°C° 0,1 mm 3 m/S 757 mmHg 74%
    10:00 +24°C° 0,1 mm 3 m/S 757 mmHg 69%
    11:00 +26°C° 0,1 mm 3 m/S 757 mmHg 63%
    12:00 +26°C° 0,1 mm 3 m/S 757 mmHg 61%
    13:00 +27°C° 0,1 mm 3 m/S 756 mmHg 59%
    14:00 +27°C° 0,1 mm 3 m/S 756 mmHg 57%
    15:00 +27°C° 0,2 mm 3 m/S 756 mmHg 61%
    16:00 +27°C° 0,2 mm 2 m/S 756 mmHg 64%
    17:00 +26°C° 0,2 mm 2 m/S 755 mmHg 68%
    18:00 +24°C° 0,1 mm 2 m/S 755 mmHg 75%
    19:00 +23°C° 0,1 mm 2 m/S 755 mmHg 82%
    20:00 +20°C° 0,1 mm 2 m/S 755 mmHg 89%
    21:00 +19°C° 0 mm 2 m/S 755 mmHg 91%
    22:00 +19°C° 0 mm 2 m/S 755 mmHg 93%
    23:00 +18°C° 0 mm 2 m/S 755 mmHg 95%

    19 August, Sonntag

    Zeit Temperatur Niederschläge Wind Luftdruck Luftfeuchtigkeit
    00:00 +18°C° 0 mm 2 m/S 755 mmHg 95%
    01:00 +17°C° 0 mm 2 m/S 755 mmHg 96%
    02:00 +17°C° 0 mm 2 m/S 755 mmHg 97%
    03:00 +17°C° 0 mm 2 m/S 755 mmHg 97%
    04:00 +17°C° 0 mm 2 m/S 755 mmHg 97%
    05:00 +17°C° 0 mm 2 m/S 755 mmHg 98%
    06:00 +18°C° 0 mm 2 m/S 754 mmHg 93%
    07:00 +19°C° 0 mm 3 m/S 754 mmHg 89%
    08:00 +20°C° 0 mm 3 m/S 754 mmHg 85%
    09:00 +21°C° 0,1 mm 3 m/S 754 mmHg 77%
    10:00 +22°C° 0,1 mm 4 m/S 754 mmHg 69%
    11:00 +23°C° 0,1 mm 4 m/S 754 mmHg 61%
    12:00 +22°C° 0,1 mm 4 m/S 754 mmHg 62%
    13:00 +22°C° 0,1 mm 4 m/S 754 mmHg 63%
    14:00 +21°C° 0,1 mm 4 m/S 754 mmHg 64%
    15:00 +20°C° 0,3 mm 3 m/S 754 mmHg 73%
    16:00 +19°C° 0,3 mm 3 m/S 754 mmHg 82%
    17:00 +18°C° 0,3 mm 3 m/S 754 mmHg 92%
    18:00 +17°C° 0,1 mm 3 m/S 754 mmHg 93%
    19:00 +17°C° 0,1 mm 2 m/S 754 mmHg 94%
    20:00 +16°C° 0,1 mm 2 m/S 754 mmHg 96%
    21:00 +16°C° 0 mm 2 m/S 754 mmHg 96%
    22:00 +15°C° 0 mm 2 m/S 754 mmHg 96%
    23:00 +14°C° 0 mm 2 m/S 755 mmHg 96%

    20 August, Montag

    Zeit Temperatur Niederschläge Wind Luftdruck Luftfeuchtigkeit
    00:00 +14°C° 0 mm 2 m/S 755 mmHg 96%
    01:00 +13°C° 0 mm 2 m/S 755 mmHg 97%
    02:00 +12°C° 0 mm 2 m/S 755 mmHg 97%
    03:00 +12°C° 0 mm 2 m/S 755 mmHg 97%
    04:00 +12°C° 0 mm 2 m/S 755 mmHg 97%
    05:00 +10°C° 0 mm 2 m/S 755 mmHg 98%
    06:00 +13°C° 0 mm 2 m/S 756 mmHg 95%
    07:00 +14°C° 0 mm 2 m/S 756 mmHg 92%
    08:00 +15°C° 0 mm 2 m/S 756 mmHg 89%
    09:00 +17°C° 0 mm 2 m/S 756 mmHg 77%
    10:00 +19°C° 0 mm 2 m/S 756 mmHg 65%
    11:00 +20°C° 0 mm 2 m/S 756 mmHg 54%
    12:00 +21°C° 0 mm 2 m/S 756 mmHg 51%
    13:00 +21°C° 0 mm 2 m/S 756 mmHg 47%
    14:00 +23°C° 0 mm 2 m/S 756 mmHg 44%
    15:00 +23°C° 0 mm 1 m/S 755 mmHg 47%
    16:00 +22°C° 0 mm 1 m/S 755 mmHg 50%
    17:00 +22°C° 0 mm 1 m/S 755 mmHg 53%
    18:00 +20°C° 0 mm 1 m/S 755 mmHg 59%
    19:00 +18°C° 0 mm 1 m/S 755 mmHg 64%
    20:00 +16°C° 0 mm 1 m/S 755 mmHg 70%
    21:00 +15°C° 0 mm 2 m/S 755 mmHg 74%
    22:00 +14°C° 0 mm 2 m/S 755 mmHg 77%
    23:00 +14°C° 0 mm 2 m/S 755 mmHg 81%
    Mehr zeigen